TimeEDT,TemperatureF,Dew PointF,Humidity,Sea Level PressureIn,VisibilityMPH,Wind Direction,Wind SpeedMPH,Gust SpeedMPH,PrecipitationIn,Events,Conditions,WindDirDegrees,DateUTC
12:53 AM,57.9,50.0,75,29.82,10.0,North,9.2,-,N/A,,Mostly Cloudy,350,2013-09-14 04:53:00
1:53 AM,57.0,48.9,74,29.83,10.0,NNW,5.8,-,N/A,,Overcast,340,2013-09-14 05:53:00
2:53 AM,57.0,48.9,74,29.84,10.0,NNW,4.6,-,N/A,,Partly Cloudy,330,2013-09-14 06:53:00
3:53 AM,53.1,48.0,83,29.85,10.0,North,4.6,-,N/A,,Clear,360,2013-09-14 07:53:00
4:53 AM,50.0,48.0,93,29.86,10.0,Calm,Calm,-,N/A,,Clear,0,2013-09-14 08:53:00
5:53 AM,50.0,48.0,93,29.88,10.0,Calm,Calm,-,N/A,,Clear,0,2013-09-14 09:53:00
6:53 AM,50.0,48.0,93,29.89,10.0,Calm,Calm,-,N/A,,Clear,0,2013-09-14 10:53:00
7:53 AM,57.0,48.0,72,29.91,10.0,NW,8.1,-,N/A,,Clear,320,2013-09-14 11:53:00
8:53 AM,57.9,46.9,67,29.93,10.0,NW,8.1,-,N/A,,Partly Cloudy,320,2013-09-14 12:53:00
9:53 AM,61.0,46.9,60,29.94,10.0,NW,13.8,-,N/A,,Overcast,320,2013-09-14 13:53:00
10:27 AM,60.8,46.4,59,29.95,10.0,WNW,16.1,-,N/A,,Overcast,300,2013-09-14 14:27:00
10:53 AM,61.0,46.9,60,29.96,10.0,WNW,15.0,-,N/A,,Overcast,290,2013-09-14 14:53:00
11:53 AM,62.1,48.0,60,29.96,10.0,WNW,8.1,-,N/A,,Overcast,300,2013-09-14 15:53:00
12:53 PM,64.9,48.0,54,29.95,10.0,NW,9.2,-,N/A,,Overcast,320,2013-09-14 16:53:00
1:53 PM,64.9,48.0,54,29.95,10.0,NW,10.4,-,N/A,,Overcast,320,2013-09-14 17:53:00
2:53 PM,64.9,48.0,54,29.95,10.0,NW,12.7,-,N/A,,Overcast,320,2013-09-14 18:53:00
3:53 PM,64.0,48.0,56,29.97,10.0,West,15.0,-,N/A,,Mostly Cloudy,280,2013-09-14 19:53:00
4:53 PM,64.0,48.0,56,29.99,10.0,WNW,12.7,18.4,N/A,,Mostly Cloudy,290,2013-09-14 20:53:00
5:53 PM,62.1,48.0,60,30.01,10.0,WNW,10.4,17.3,N/A,,Mostly Cloudy,300,2013-09-14 21:53:00
6:53 PM,60.1,48.0,64,30.03,10.0,West,5.8,-,N/A,,Mostly Cloudy,280,2013-09-14 22:53:00
7:53 PM,59.0,48.0,67,30.05,10.0,WNW,5.8,-,N/A,,Overcast,300,2013-09-14 23:53:00
8:53 PM,59.0,46.9,64,30.06,10.0,NNW,4.6,-,N/A,,Overcast,330,2013-09-15 00:53:00
9:53 PM,55.9,46.9,72,30.07,10.0,WNW,6.9,-,N/A,,Clear,300,2013-09-15 01:53:00
10:53 PM,55.9,46.0,69,30.07,10.0,NW,9.2,17.3,N/A,,Clear,320,2013-09-15 02:53:00
11:53 PM,54.0,45.0,72,30.09,10.0,NW,3.5,-,N/A,,Clear,310,2013-09-15 03:53:00